MSG 4 DEB (COOLER COVER), 40989

Orbit data source: Space-Track

MSG 4 DEB (COOLER COVER), 40989 is space debris in GEO originally from a launch on Wed, 15 Jul 2015 UTC launched from the French Guiana (FRGUI). Debris objects in space refer to the collection of defunct objects orbiting the Earth. Examples of debris include non-operational satellites, rocket bodies, and fragments generated from explosions, collisions, or faulty payload assembly.

Not visible in the next 10 days
MSG 4 DEB (COOLER COVER) details
Identifier
40989, 2015-034E
Orbit
GEO
Last TLE update19 hours ago
Origin
Flag of DEEUMETSAT (DE / EUME)
ManufacturerSENER
MissionSpacecraft
Bus & MotorMSG COVER, Unknown motor
Mass~0 kg wet, ~4 kg dry
Launch date (UTC)
2015-07-15 (9 years ago)
Launch vehicleUnknown
Launch site
French Guiana (FRGUI)
Object type
Payload
Rocket body
Debris
Shape & HBRCyl, 1.55 m
Radar Cross Section1.065 m²

Expand to show TLE details & history

TLE from 19 hours ago
0 MSG 4 DEB (COOLER COVER)
1 40989U 15034E   24360.62484931 -.00000156  00000-0  00000+0 0  9997
2 40989   5.7419  87.9788 0028517 259.3288  94.6058  1.01537119 34866
Epoch: 2024-12-25T14:59Z
Definitive object data (Epoch: 2024-12-25T14:59:46.98Z)
Latitude-0.55372°
Longitude122.70171°
Altitude35,445.221 km
Speed3.087 km/s
True Right ascension05h 29m 03s
True Declination0° 33' 11"
Sunlit
Object was in daylight at TLE epoch
Visualization TLE readout
Latitude-5.56734°
Longitude52.86215°
Altitude35,328.544 km
Speed3.095 km/s
Apparent Right ascension00h 30m 05s
Apparent Declination-10° 16' 43"
Sunlit
Object is in daylight
Visualization observer readout
Local Sidereal Time09:24:30
Azimuth292.739° NW
Elevation-39.42°
Doppler factor1
Orbital elements
Apogee altitude35,555.871 km
Perigee altitude35,317.385 km
Semi-major axis41,814.765 km
Eccentricity0.0028517
Inclination5.7419°
RAAN87.9788°
Arg. of periapsis259.3288°
True anomaly94.93143°
Mean anomaly94.6058°
Eccentric anomaly94.76862°
Mean motion0.25383 °/min
BSTARUnknown
Orbital period1418.25 mins
Loading historical data...
40989 neighbors
Authenticating...
Loading maneuver chart data...
Loading historical data...
Loading historical data...
Loading historical data...
Loading historical data...
Loading historical data...
Loading historical data...
Loading historical data...

MSG 4 DEB (COOLER COVER) Visibility forecast

Observer location: undefined°, undefined

MSG 4 DEB (COOLER COVER) is not visible in the next 10 days
Span
Click to sort rows by Start time (UTC) header in descending order
Start Az.
Max El. time (UTC)
Max El. Az.
Max El.
End time (UTC)
End Az.
|